Tracking 19832 objects as of 24-Aug-2019
HD Live streaming from Space Station
objects crossing your sky now

ATLAS 5 CENTAUR R/B

Track ATLAS 5 CENTAUR R/B now!


NORAD ID: 39505
Int'l Code: 2014-004B
Perigee: 4,685.6 km
Apogee: 34,665.8 km
Inclination: 25.7 °
Period: 697.2 minutes
Semi major axis: 26046 km
RCS: Unknown
Launch date: January 23, 2014
Source: United States (US)
Launch site: AIR FORCE EASTERN TEST RANGE (AFETR)

Note: This is a ROCKET BODY
aabbcc
Your satellite tracking list
Your tracking list is empty




NASA's NSSDC Master Catalog

Two Line Element Set (TLE):
1 39505U 14004B   19235.14061591 -.00000250  00000-0  00000+0 0  9995
2 39505  25.6758  33.1883 5755082 342.5457   3.7849  2.06525680 42073
Source of the keplerian elements: AFSPC